1506394800.1,5624,14.06,74494.8,0.87,-0.23,-0.11,0,*76
1506394801.3,5625,14.06,74492.5,0.87,-0.15,-0.03,0,*41
1506394802.49,5626,14.06,74492.5,0.87,-0.15,-0.03,0,*42
1506394803.71,5627,14.06,74494.5,0.87,-0.23,-0.03,0,*46
1506394804.91,5628,14.06,74492.5,0.87,-0.15,-0.03,0,*4C
1506394806.11,5629,14.06,74498.3,0.87,-0.15,-0.11,0,*7E
1506394807.36,5630,14.06,74494.3,0.87,-0.27,-0.23,0,*76
1506394808.54,5631,14.06,74496.0,0.85,-0.11,-0.03,0,*42
1506394809.74,5632,14.06,74500.3,0.83,-0.19,-0.19,0,*74
1506394810.95,5633,14.06,74500.8,0.87,-0.15,-0.15,0,*71
1506394812.15,5634,14.13,74502.3,0.87,-0.03,-0.11,0,*45
1506394813.33,5635,14.06,74502.0,0.87,0.01,0.09,0,*7F
1506394814.51,5636,14.06,74498.5,0.87,0.09,0.09,0,*74
1506394815.7,5637,14.06,74494.8,0.87,0.01,-0.11,0,*69
1506394816.9,5638,14.06,74498.3,0.87,-0.03,-0.03,0,*7A
1506394818.09,5639,14.13,74502.0,0.87,-0.11,0.01,0,*67
1506394819.24,5640,14.06,74498.5,0.89,0.01,0.01,0,*7B
1506394820.44,5641,14.06,74502.0,0.87,-0.11,-0.03,0,*47
1506394821.63,5642,14.13,74506.0,0.87,-0.03,0.09,0,*50
1506394822.81,5643,14.06,74498.0,0.87,-0.03,0.01,0,*59
1506394824.01,5644,14.13,74500.3,0.87,-0.11,0.09,0,*65
1506394825.2,5645,14.06,74502.3,0.87,-0.11,0.01,0,*6C
1506394826.4,5646,14.06,74504.0,0.87,-0.03,-0.03,0,*73
1506394827.6,5647,14.06,74504.0,0.87,-0.11,-0.11,0,*72
1506394828.8,5648,14.06,74500.3,0.87,-0.03,-0.03,0,*7D
1506394829.99,5649,14.06,74498.3,0.87,-0.11,0.01,0,*60
1506394831.18,5650,14.06,74500.8,0.87,-0.03,0.09,0,*53
1506394832.37,5651,14.06,74504.8,0.87,-0.03,0.01,0,*5A
1506394833.55,5652,14.13,74504.5,0.87,-0.03,0.01,0,*59
1506394834.75,5653,14.06,74500.5,0.87,-0.11,-0.03,0,*44
1506394835.91,5654,14.13,74502.8,0.89,-0.07,0.01,0,*55
1506394837.1,5655,14.06,74498.5,0.87,-0.03,0.01,0,*5E
1506394838.27,5656,14.06,74502.3,0.87,0.01,0.09,0,*7A
1506394839.45,5657,14.06,74504.5,0.87,0.01,0.01,0,*73
1506394840.65,5658,14.06,74500.8,0.87,-0.11,-0.03,0,*4F
1506394841.83,5659,14.06,74500.3,0.87,0.09,0.01,0,*75
1506394843.0,5660,14.06,74498.5,0.87,0.01,0.01,0,*77
1506394844.18,5661,14.06,74494.8,0.87,0.01,0.01,0,*76
1506394845.36,5662,14.13,74500.8,0.87,-0.03,0.01,0,*5A
1506394846.51,5663,14.06,74496.5,0.89,0.01,0.01,0,*7A
1506394847.71,5664,14.06,74500.0,0.87,-0.03,-0.03,0,*73
1506394848.89,5665,14.06,74498.5,0.87,-0.03,0.01,0,*5D
1506394850.08,5666,14.06,74500.8,0.87,0.09,0.09,0,*71
1506394851.25,5667,14.06,74496.0,0.87,0.01,0.09,0,*78
1506394852.41,5668,14.06,74498.5,0.89,-0.07,0.01,0,*5A
1506394853.58,5669,14.06,74496.8,0.89,-0.07,-0.07,0,*70
1506394854.72,5670,14.06,74496.5,0.89,0.01,0.01,0,*78
1506394855.91,5671,14.06,74506.3,0.87,0.05,0.09,0,*7B
1506394857.07,5672,14.06,74498.5,0.89,-0.07,0.05,0,*55
1506394858.26,5673,14.06,74498.0,0.87,-0.11,0.01,0,*69
1506394859.44,5674,14.06,74498.8,0.89,-0.19,-0.07,0,*43
1506394860.66,5675,14.13,74500.3,0.87,-0.23,-0.03,0,*41
1506394861.81,5676,14.06,74494.8,0.89,-0.07,0.01,0,*55
1506394862.98,5677,14.06,74494.5,0.89,-0.29,-0.07,0,*43
1506394864.18,5678,14.06,74492.8,0.89,-0.23,-0.07,0,*46
1506394865.4,5679,14.06,74496.8,0.87,-0.23,-0.11,0,*7E
1506394866.57,5680,14.06,74496.5,0.89,-0.19,0.01,0,*63
1506394867.77,5681,14.06,74494.3,0.87,-0.33,-0.11,0,*78
1506394868.95,5682,14.06,74498.3,0.89,-0.41,-0.19,0,*78
1506394870.15,5683,14.06,74500.8,0.89,-0.41,-0.23,0,*70
1506394871.36,5684,14.06,74502.3,0.89,-0.41,-0.23,0,*77
1506394872.56,5685,14.13,74506.3,0.89,-0.23,-0.11,0,*73
1506394873.73,5686,14.13,74510.3,0.89,-0.33,-0.29,0,*7A
1506394874.93,5687,14.06,74506.3,0.87,-0.49,-0.37,0,*77
1506394876.12,5688,14.06,74506.5,0.89,-0.45,-0.23,0,*7F
1506394877.35,5689,14.06,74504.3,0.87,-0.37,-0.23,0,*75
1506394878.55,5690,14.06,74502.5,0.87,-0.37,-0.15,0,*78
1506394879.76,5691,14.06,74498.8,0.89,-0.23,-0.11,0,*76
1506394880.96,5692,14.06,74498.5,0.89,-0.23,-0.19,0,*7D
1506394882.12,5693,14.06,74498.0,0.89,-0.33,-0.29,0,*7E
1506394883.37,5694,14.06,74498.0,0.87,-0.27,-0.27,0,*7C
1506394884.59,5695,14.06,74496.5,0.87,-0.33,-0.27,0,*78
1506394885.79,5696,14.06,74500.0,0.87,-0.33,-0.15,0,*7A
1506394887.02,5697,14.06,74494.8,0.87,-0.27,-0.15,0,*7E
1506394888.2,5698,14.06,74494.0,0.89,-0.19,-0.11,0,*76
1506394889.43,5699,14.06,74494.3,0.87,-0.27,-0.19,0,*7C
1506394890.65,5700,14.06,74490.5,0.87,-0.33,-0.23,0,*71
1506394891.85,5701,14.06,74486.5,0.89,-0.23,-0.19,0,*76
1506394893.05,5702,14.06,74492.3,0.89,-0.23,-0.11,0,*7D
1506394894.28,5703,14.06,74494.0,0.87,-0.23,-0.15,0,*76
1506394895.47,5704,14.06,74490.3,0.89,-0.19,-0.11,0,*72
1506394896.66,5705,14.06,74490.3,0.89,-0.33,-0.23,0,*7A
1506394897.88,5706,14.06,74494.3,0.87,-0.37,-0.23,0,*73
1506394899.08,5707,14.06,74490.3,0.87,-0.45,-0.33,0,*76
1506394900.29,5708,14.06,74494.5,0.87,-0.45,-0.33,0,*79
1506394901.51,5709,14.06,74496.8,0.87,-0.33,-0.23,0,*78
1506394902.73,5710,14.06,74496.5,0.87,-0.37,-0.23,0,*74
1506394903.96,5711,14.06,74498.0,0.87,-0.37,-0.27,0,*71
1506394905.18,5712,14.06,74490.5,0.87,-0.33,-0.27,0,*76
1506394906.41,5713,14.06,74486.5,0.87,-0.27,-0.15,0,*73
1506394907.58,5714,14.06,74488.8,0.89,-0.19,-0.19,0,*7B
1506394908.78,5715,14.06,74486.0,0.89,-0.23,-0.19,0,*73
1506394910.03,5716,14.06,74490.8,0.87,-0.27,-0.23,0,*73
1506394911.25,5717,14.06,74494.5,0.87,-0.33,-0.23,0,*77
1506394912.5,5718,14.06,74498.5,0.87,-0.27,-0.27,0,*79
1506394913.75,5719,14.06,74492.8,0.87,-0.27,-0.23,0,*7C
1506394914.97,5720,14.06,74496.5,0.87,-0.33,-0.23,0,*73
1506394916.14,5721,14.06,74496.5,0.89,-0.45,-0.33,0,*7C
1506394917.34,5722,14.06,74494.0,0.87,-0.49,-0.37,0,*79
1506394918.55,5723,14.06,74492.5,0.87,-0.45,-0.33,0,*70
1506394919.75,5724,14.06,74496.3,0.87,-0.57,-0.45,0,*75
1506394920.92,5725,14.06,74492.8,0.89,-0.45,-0.33,0,*78
1506394922.11,5726,14.06,74492.3,0.89,-0.53,-0.41,0,*79
1506394923.28,5727,14.06,74494.0,0.89,-0.53,-0.45,0,*7C
1506394924.48,5728,14.06,74492.5,0.87,-0.49,-0.37,0,*73
1506394925.68,5729,14.06,74496.5,0.87,-0.49,-0.37,0,*72
1506394926.89,5730,14.06,74496.3,0.87,-0.45,-0.33,0,*72
1506394928.09,5731,14.06,74502.0,0.87,-0.37,-0.33,0,*76
1506394929.31,5732,14.06,74500.8,0.87,-0.33,-0.27,0,*74
1506394930.48,5733,14.06,74498.5,0.89,-0.29,-0.19,0,*7D
1506394931.68,5734,14.06,74498.8,0.87,-0.37,-0.33,0,*73
1506394932.86,5735,14.06,74502.5,0.89,-0.29,-0.19,0,*7B
1506394934.11,5736,14.06,74496.0,0.87,-0.27,-0.23,0,*71
1506394935.28,5737,14.06,74492.0,0.89,-0.41,-0.29,0,*74
1506394936.48,5738,14.06,74494.3,0.89,-0.45,-0.23,0,*75
1506394937.65,5739,14.06,74492.0,0.89,-0.33,-0.19,0,*7C
1506394938.84,5740,14.06,74492.5,0.89,-0.33,-0.23,0,*7B
1506394940.04,5741,14.06,74494.3,0.89,-0.33,-0.27,0,*7E
1506394941.24,5742,14.06,74488.5,0.87,-0.33,-0.15,0,*72
1506394942.41,5743,14.06,74492.5,0.89,-0.33,-0.19,0,*71
1506394943.62,5744,14.06,74492.0,0.87,-0.57,-0.33,0,*72
1506394944.82,5745,14.06,74488.5,0.87,-0.69,-0.57,0,*7C
1506394946.02,5746,14.06,74486.5,0.87,-0.73,-0.49,0,*7B
1506394947.22,5747,14.06,74488.8,0.87,-0.61,-0.45,0,*75
1506394948.41,5748,14.06,74494.3,0.87,-0.61,-0.45,0,*7A
1506394949.59,5749,14.06,74494.3,0.89,-0.57,-0.45,0,*70
1506394950.76,5750,14.06,74494.5,0.89,-0.57,-0.45,0,*78
1506394951.96,5751,14.06,74490.3,0.87,-0.61,-0.45,0,*72
1506394953.16,5752,14.06,74492.0,0.87,-0.69,-0.49,0,*75
1506394954.37,5753,14.06,74496.3,0.87,-0.57,-0.45,0,*75
1506394955.54,5754,14.06,74496.8,0.89,-0.41,-0.29,0,*71
1506394956.74,5755,14.06,74498.8,0.87,-0.49,-0.33,0,*7D
1506394957.92,5756,14.06,74496.5,0.89,-0.41,-0.33,0,*78
1506394959.1,5757,14.06,74496.0,0.89,-0.41,-0.33,0,*79
1506394960.27,5758,14.06,74500.5,0.89,-0.41,-0.29,0,*7D
1506394961.45,5759,14.06,74500.5,0.89,-0.41,-0.29,0,*7C
1506394962.67,5760,14.06,74500.0,0.87,-0.45,-0.27,0,*72
1506394963.85,5761,14.06,74500.5,0.89,-0.41,-0.29,0,*77
1506394965.05,5762,14.06,74502.3,0.87,-0.37,-0.33,0,*70
1506394966.27,5763,14.06,74502.5,0.89,-0.23,-0.23,0,*7B
1506394967.47,5764,14.06,74500.0,0.89,-0.23,-0.19,0,*75
1506394968.67,5765,14.06,74502.3,0.89,-0.23,-0.19,0,*74
1506394969.84,5766,14.06,74502.5,0.89,-0.29,-0.19,0,*7D
1506394971.04,5767,14.06,74496.5,0.87,-0.33,-0.33,0,*71
1506394972.22,5768,14.06,74502.3,0.89,-0.33,-0.41,0,*75
1506394973.42,5769,14.06,74498.0,0.87,-0.37,-0.37,0,*7F
1506394974.62,5770,14.13,74504.8,0.89,-0.23,-0.19,0,*70
1506394975.85,5771,14.06,74502.0,0.89,-0.23,-0.23,0,*78
1506394977.05,5772,14.06,74500.5,0.89,-0.23,-0.11,0,*7A
1506394978.25,5773,14.06,74502.5,0.89,-0.23,-0.19,0,*73
1506394979.44,5774,14.06,74500.3,0.89,-0.29,-0.23,0,*77
1506394980.61,5775,14.13,74502.0,0.89,-0.29,-0.33,0,*77
1506394981.78,5776,14.06,74500.8,0.89,-0.29,-0.29,0,*7F
1506394983.0,5777,14.06,74502.0,0.89,-0.27,-0.23,0,*7A
1506394984.19,5778,14.06,74494.5,0.89,-0.29,-0.23,0,*7B
1506394985.4,5779,14.06,74492.5,0.89,-0.23,-0.11,0,*71
1506394986.58,5780,14.06,74494.8,0.89,-0.19,-0.19,0,*76
1506394987.76,5781,14.06,74496.3,0.89,-0.19,-0.19,0,*77
1506394988.93,5782,14.06,74494.8,0.89,-0.07,-0.11,0,*43
1506394990.13,5783,14.06,74496.0,0.87,-0.03,-0.11,0,*48
1506394991.29,5784,14.06,74490.5,0.89,-0.07,0.01,0,*59
1506394992.48,5785,14.06,74496.0,0.91,-0.03,-0.03,0,*7A
1506394993.65,5786,14.06,74492.3,0.93,0.05,-0.03,0,*50
1506394994.84,5787,14.06,74494.0,0.91,-0.03,0.05,0,*53
1506394996.03,5788,14.13,74496.3,0.91,0.05,0.09,0,*7B
1506394997.18,5789,14.13,74498.0,0.89,0.01,0.05,0,*7B
1506394998.37,5790,14.06,74496.3,0.91,0.05,0.09,0,*72
1506394999.58,5791,14.06,74498.8,0.91,0.09,0.17,0,*40
1506395000.77,5792,14.06,74498.3,0.91,0.09,0.05,0,*70
1506395001.95,5793,14.06,74496.5,0.91,0.09,0.09,0,*7D
1506395003.15,5794,14.06,74496.3,0.91,-0.03,0.09,0,*5D
1506395004.34,5795,14.06,74498.8,0.91,-0.07,-0.03,0,*7F
1506395005.53,5796,14.06,74494.5,0.91,-0.03,0.05,0,*53
1506395006.73,5797,14.06,74492.3,0.91,-0.03,0.05,0,*52
1506395007.92,5798,14.13,74498.5,0.91,0.05,0.05,0,*76
1506395009.07,5799,14.06,74498.5,0.89,0.05,0.05,0,*7E
1506395010.28,5800,14.06,74500.0,0.89,0.13,0.13,0,*71
1506395011.46,5801,14.06,74500.5,0.89,0.05,0.13,0,*47
1506395012.7,5802,14.06,74502.5,0.91,0.17,0.21,0,*7F
1506395013.93,5803,14.06,74500.0,0.91,0.17,0.21,0,*7E
1506395015.17,5804,14.06,74498.5,0.91,0.17,0.21,0,*79
1506395016.41,5805,14.06,74496.8,0.91,0.17,0.21,0,*78
1506395017.64,5806,14.06,74496.8,0.91,0.17,0.25,0,*7F
1506395018.88,5807,14.06,74500.5,0.91,0.17,0.21,0,*7A
1506395020.12,5808,14.06,74500.5,0.91,0.17,0.21,0,*75
1506395021.35,5809,14.13,74502.0,0.91,0.17,0.21,0,*74
1506395022.56,5810,14.06,74496.8,0.93,0.17,0.17,0,*7B
1506395023.77,5811,14.06,74496.3,0.91,0.09,0.17,0,*47
1506395025.0,5812,14.06,74496.0,0.91,0.17,0.17,0,*7B
1506395026.19,5813,14.06,74500.8,0.91,0.09,0.09,0,*7A
1506395027.37,5814,14.06,74496.5,0.93,0.09,0.17,0,*40
1506395028.55,5815,14.06,74500.8,0.91,0.05,0.09,0,*70
1506395029.72,5816,14.06,74498.0,0.93,0.05,0.09,0,*71
1506395030.9,5817,14.06,74502.3,0.91,0.05,0.05,0,*7E
1506395032.11,5818,14.06,74498.5,0.91,0.09,0.17,0,*4E
1506395033.35,5819,14.06,74498.5,0.91,0.17,0.17,0,*70
1506395034.58,5820,14.06,74492.5,0.91,0.17,0.17,0,*7A
1506395035.79,5821,14.13,74500.8,0.91,0.09,0.17,0,*44
1506395036.95,5822,14.06,74498.0,0.93,0.09,0.09,0,*7A
1506395038.16,5823,14.06,74494.5,0.91,-0.03,0.17,0,*61
1506395039.33,5824,14.06,74492.5,0.93,-0.03,0.05,0,*57
1506395040.49,5825,14.06,74494.0,0.93,-0.03,0.05,0,*56
1506395041.66,5826,14.06,74494.8,0.93,0.05,-0.03,0,*55
1506395042.82,5827,14.13,74496.8,0.93,0.05,0.05,0,*7F
1506395044.01,5828,14.06,74496.0,0.91,0.05,-0.03,0,*59
1506395045.2,5829,14.06,74494.3,0.91,-0.03,-0.03,0,*73
1506395046.38,5830,14.06,74492.5,0.93,-0.15,-0.15,0,*79
1506395047.59,5831,14.06,74496.3,0.91,-0.15,-0.15,0,*7A
1506395048.76,5832,14.06,74498.5,0.93,-0.07,-0.07,0,*7B
1506395049.93,5833,14.06,74500.8,0.93,-0.07,-0.15,0,*49
1506395051.1,5834,14.06,74506.3,0.93,-0.15,-0.07,0,*4E
1506395052.27,5835,14.06,74506.5,0.93,0.05,0.05,0,*7C
1506395053.44,5836,14.06,74508.3,0.93,-0.03,-0.03,0,*7F
1506395054.62,5837,14.06,74506.0,0.91,0.05,0.05,0,*7C
1506395055.81,5838,14.06,74504.3,0.91,0.05,0.09,0,*7F
1506395057.0,5839,14.06,74504.8,0.91,0.05,0.09,0,*7E
1506395058.16,5840,14.06,74496.3,0.93,0.05,0.09,0,*72
1506395059.35,5841,14.13,74500.8,0.91,0.09,0.09,0,*7D
1506395060.51,5842,14.06,74502.8,0.93,0.05,0.09,0,*70
1506395061.72,5843,14.06,74500.0,0.91,0.09,0.17,0,*40
1506395062.91,5844,14.06,74498.0,0.91,0.09,0.09,0,*78
1506395064.1,5845,14.06,74496.3,0.91,0.09,0.09,0,*79
1506395065.28,5846,14.06,74498.0,0.91,0.05,0.09,0,*76
1506395066.44,5847,14.13,74496.8,0.93,0.09,0.09,0,*79
1506395067.6,5848,14.06,74492.0,0.93,0.09,0.09,0,*76
1506395068.79,5849,14.06,74494.8,0.91,0.09,0.09,0,*75
1506395069.98,5850,14.06,74494.8,0.91,0.05,0.09,0,*71
1506395071.14,5851,14.06,74496.5,0.93,0.05,0.05,0,*7E
1506395072.32,5852,14.06,74494.3,0.93,0.05,0.17,0,*4E
1506395073.51,5853,14.06,74494.5,0.91,0.05,0.09,0,*72
1506395074.68,5854,14.06,74494.8,0.93,-0.03,-0.03,0,*7B
1506395075.84,5855,14.06,74492.5,0.93,-0.07,-0.03,0,*7E
1506395077.05,5856,14.13,74494.8,0.91,-0.15,-0.15,0,*7B
1506395078.26,5857,14.06,74494.0,0.91,-0.15,-0.15,0,*7A
1506395079.49,5858,14.06,74490.0,0.91,-0.27,-0.15,0,*74
1506395080.68,5859,14.06,74492.0,0.91,-0.07,-0.07,0,*74
1506395081.88,5860,14.06,74492.0,0.91,-0.07,-0.07,0,*7E
1506395083.05,5861,14.06,74490.3,0.93,-0.03,-0.03,0,*7D
1506395084.21,5862,14.06,74492.3,0.93,-0.07,-0.07,0,*7E
1506395085.38,5863,14.06,74492.8,0.93,-0.07,-0.03,0,*7B
1506395086.57,5864,14.06,74492.5,0.91,0.05,0.05,0,*7A
1506395087.76,5865,14.06,74494.3,0.91,0.05,0.09,0,*77
1506395088.95,5866,14.06,74496.3,0.91,-0.03,0.05,0,*53
1506395090.14,5867,14.06,74494.5,0.91,0.05,0.05,0,*79
1506395091.32,5868,14.06,74494.0,0.93,0.05,0.17,0,*47
1506395092.48,5869,14.13,74498.5,0.93,0.05,0.09,0,*79
1506395093.67,5870,14.06,74496.3,0.91,0.05,0.05,0,*7F
1506395094.85,5871,14.06,74498.0,0.93,0.05,0.17,0,*4F
1506395096.04,5872,14.06,74496.0,0.91,0.09,0.09,0,*7D
1506395097.2,5873,14.06,74498.0,0.93,0.09,0.05,0,*72
1506395098.36,5874,14.06,74496.5,0.93,0.05,0.05,0,*79
1506395099.52,5875,14.06,74500.0,0.93,0.09,0.09,0,*78
1506395100.72,5876,14.06,74496.0,0.91,-0.03,-0.03,0,*79
1506395101.88,5877,14.06,74498.3,0.93,0.05,0.09,0,*76
1506395103.07,5878,14.06,74496.0,0.91,-0.03,0.05,0,*5C
1506395104.27,5879,14.06,74498.3,0.91,-0.03,0.05,0,*5D
1506395105.43,5880,14.06,74494.8,0.93,0.05,0.09,0,*7E
1506395106.59,5881,14.06,74492.0,0.93,0.05,0.05,0,*73
1506395107.76,5882,14.06,74492.5,0.93,-0.03,-0.03,0,*70
1506395108.95,5883,14.13,74498.8,0.91,-0.03,0.05,0,*58
1506395110.11,5884,14.06,74492.5,0.93,0.05,0.05,0,*76
1506395111.3,5885,14.06,74494.3,0.91,0.05,0.09,0,*79
1506395112.46,5886,14.06,74496.8,0.93,0.09,0.09,0,*74
1506395113.65,5887,14.06,74494.8,0.91,-0.03,0.05,0,*5C
1506395114.84,5888,14.13,74502.3,0.91,0.05,0.09,0,*74
1506395116.03,5889,14.06,74496.3,0.91,0.09,0.09,0,*79
1506395117.24,5890,14.13,74500.0,0.91,0.09,0.17,0,*4E
1506395118.43,5891,14.06,74496.3,0.91,0.05,0.09,0,*7C
1506395119.59,5892,14.06,74500.5,0.93,-0.03,0.05,0,*5A
1506395120.79,5893,14.13,74504.5,0.91,-0.03,0.05,0,*59
1506395121.95,5894,14.13,74502.8,0.93,-0.03,0.09,0,*50
1506395123.14,5895,14.06,74502.5,0.91,0.05,0.09,0,*78
1506395124.33,5896,14.13,74506.8,0.91,0.09,0.09,0,*77
1506395125.49,5897,14.06,74506.8,0.93,-0.03,0.05,0,*5F
1506395126.66,5898,14.06,74508.8,0.93,0.05,-0.03,0,*50
1506395127.85,5899,14.06,74508.8,0.91,0.05,-0.03,0,*53
1506395129.04,5900,14.06,74506.5,0.91,0.09,0.09,0,*79
1506395130.22,5901,14.13,74512.3,0.91,0.05,0.09,0,*74
1506395131.38,5902,14.06,74512.3,0.93,0.09,0.09,0,*79
1506395132.61,5903,14.06,74508.0,0.91,0.17,0.17,0,*7A
1506395133.82,5904,14.13,74512.5,0.91,0.09,0.17,0,*42
1506395135.01,5905,14.06,74512.5,0.93,0.09,0.17,0,*41
1506395136.24,5906,14.06,74510.8,0.91,0.17,0.17,0,*7F
1506395137.42,5907,14.06,74514.3,0.93,0.09,0.17,0,*43
1506395138.65,5908,14.06,74510.0,0.91,0.17,0.17,0,*71
1506395139.85,5909,14.13,74510.8,0.93,0.17,0.17,0,*72
1506395141.06,5910,14.06,74504.5,0.93,0.17,0.17,0,*7A
1506395142.24,5911,14.06,74506.0,0.93,0.09,0.17,0,*44
1506395143.47,5912,14.13,74508.3,0.91,0.17,0.17,0,*7A
1506395144.68,5913,14.13,74508.8,0.93,0.21,0.17,0,*7C
1506395145.91,5914,14.06,74506.5,0.91,0.21,0.17,0,*79
1506395147.12,5915,14.06,74508.8,0.93,0.21,0.17,0,*7A
1506395148.33,5916,14.13,74510.8,0.97,0.25,0.25,0,*78
1506395149.55,5917,14.13,74508.8,0.93,0.21,0.21,0,*7D
1506395150.76,5918,14.06,74506.8,0.93,0.17,0.21,0,*77
1506395151.97,5919,14.13,74514.0,0.93,0.17,0.21,0,*76
1506395153.18,5920,14.06,74506.8,0.93,0.17,0.21,0,*7C
1506395154.34,5921,14.06,74500.5,0.93,0.09,0.09,0,*78
1506395155.54,5922,14.06,74504.0,0.93,0.17,0.17,0,*7B
1506395156.7,5923,14.06,74500.8,0.93,0.09,0.09,0,*7A
1506395157.91,5924,14.06,74500.3,0.97,0.13,0.21,0,*78
1506395159.12,5925,14.06,74500.3,0.93,0.17,0.17,0,*7C
1506395160.28,5926,14.13,74502.0,0.93,0.09,0.09,0,*7F
1506395161.46,5927,14.13,74498.5,0.93,0.17,0.09,0,*41
1506395162.65,5928,14.06,74492.3,0.91,0.09,0.09,0,*73
1506395163.85,5929,14.13,74496.3,0.93,0.17,0.17,0,*70
1506395165.01,5930,14.06,74498.5,0.93,0.05,0.05,0,*78
1506395166.16,5931,14.13,74504.8,0.97,0.01,0.01,0,*7D
1506395167.35,5932,14.06,74498.5,0.99,0.01,-0.03,0,*5F
1506395168.5,5933,14.13,74500.0,0.97,0.01,0.01,0,*7F
1506395169.65,5934,14.13,74506.8,0.97,0.01,0.09,0,*70
1506395170.82,5935,14.13,74510.3,0.93,-0.03,-0.03,0,*7D
1506395171.99,5936,14.06,74506.3,0.93,-0.03,-0.03,0,*7E
1506395173.14,5937,14.06,74506.3,0.97,0.01,0.01,0,*7B
1506395174.3,5938,14.06,74502.8,0.97,0.01,0.09,0,*7C
1506395175.47,5939,14.06,74502.8,0.93,-0.03,-0.03,0,*71
1506395176.63,5940,14.13,74506.5,0.93,0.05,0.05,0,*7F
1506395177.83,5941,14.13,74504.0,0.97,0.13,0.13,0,*7A
1506395179.04,5942,14.06,74504.8,0.99,0.09,0.13,0,*4C
1506395180.2,5943,14.13,74506.0,0.97,0.09,0.09,0,*78
1506395181.35,5944,14.06,74506.8,0.97,0.01,0.01,0,*7F
1506395182.52,5945,14.13,74508.0,0.97,0.09,0.09,0,*7E
1506395183.67,5946,14.06,74502.3,0.97,0.01,0.09,0,*75
1506395184.84,5947,14.13,74508.5,0.93,-0.03,0.05,0,*53
1506395186.0,5948,14.13,74510.5,0.93,-0.03,0.05,0,*5C
1506395187.17,5949,14.13,74504.3,0.93,0.05,0.05,0,*76
1506395188.33,5950,14.06,74502.3,0.93,0.05,0.09,0,*72
1506395189.51,5951,14.13,74502.0,0.97,0.09,0.13,0,*40
1506395190.67,5952,14.13,74502.0,0.97,0.09,0.01,0,*70
1506395191.85,5953,14.06,74500.5,0.93,0.09,0.17,0,*42
1506395193.01,5954,14.13,74504.3,0.93,0.05,0.05,0,*7A
1506395194.19,5955,14.06,74502.0,0.93,0.09,0.17,0,*44
1506395195.35,5956,14.13,74500.0,0.93,0.05,0.05,0,*78
1506395196.54,5957,14.13,74502.5,0.93,0.05,0.17,0,*4A
1506395197.7,5958,14.13,74496.5,0.93,0.09,0.09,0,*76
1506395198.9,5959,14.06,74500.8,0.93,0.17,0.17,0,*77
1506395200.06,5960,14.13,74500.5,0.93,0.09,0.09,0,*7D
1506395201.23,5961,14.13,74506.3,0.93,-0.07,-0.03,0,*78
1506395202.39,5962,14.13,74506.0,0.93,-0.03,-0.03,0,*7F
1506395203.56,5963,14.13,74506.8,0.93,-0.03,-0.03,0,*7E
1506395204.72,5964,14.13,74510.8,0.93,0.05,0.05,0,*79
1506395205.88,5965,14.13,74510.8,0.97,0.09,0.09,0,*7C
1506395207.07,5966,14.13,74510.8,0.97,0.13,0.09,0,*44
1506395208.27,5967,14.13,74508.0,0.97,0.13,0.13,0,*7E
1506395209.49,5968,14.13,74508.3,0.97,0.21,0.21,0,*71
1506395210.69,5969,14.13,74500.0,0.93,0.17,0.17,0,*74
1506395211.91,5970,14.13,74502.3,0.97,0.21,0.21,0,*78
1506395213.12,5971,14.13,74498.0,0.97,0.21,0.21,0,*79
1506395214.33,5972,14.13,74494.0,0.93,0.17,0.21,0,*7B
1506395215.54,5973,14.13,74492.8,0.97,0.21,0.25,0,*7F
1506395216.76,5974,14.13,74496.3,0.97,0.21,0.21,0,*7C
1506395217.97,5975,14.13,74496.5,0.97,0.21,0.21,0,*7D
1506395219.18,5976,14.13,74496.8,0.97,0.21,0.13,0,*7F
1506395220.41,5977,14.13,74500.0,0.99,0.13,0.13,0,*71
1506395221.62,5978,14.13,74502.8,0.99,0.13,0.09,0,*45
1506395222.78,5979,14.13,74500.8,0.97,0.01,0.09,0,*79
1506395223.98,5980,14.13,74500.5,0.97,0.13,0.13,0,*77
1506395225.19,5981,14.13,74504.0,0.97,0.13,0.13,0,*76
1506395226.4,5982,14.13,74500.5,0.97,0.21,0.21,0,*75
1506395227.59,5983,14.13,74504.3,0.97,0.13,0.09,0,*4F
1506395228.8,5984,14.13,74504.8,0.97,0.21,0.21,0,*73
1506395229.98,5985,14.13,74506.0,0.97,0.13,0.09,0,*49
1506395231.2,5986,14.13,74504.0,0.97,0.21,0.21,0,*71
1506395232.41,5987,14.13,74504.5,0.97,0.21,0.13,0,*71
1506395233.61,5988,14.13,74504.5,0.97,0.13,0.25,0,*7A
1506395234.82,5989,14.13,74502.8,0.97,0.13,0.13,0,*7E
1506395236.03,5990,14.13,74498.0,0.97,0.21,0.21,0,*76
1506395237.25,5991,14.13,74498.8,0.97,0.21,0.21,0,*77
1506395238.49,5992,14.13,74496.5,0.99,0.21,0.21,0,*7A
1506395239.7,5993,14.13,74494.0,0.97,0.13,0.13,0,*75
1506395240.87,5994,14.13,74492.3,0.99,0.01,0.01,0,*7C
1506395242.03,5995,14.13,74496.3,0.97,0.01,0.09,0,*7B
1506395243.19,5996,14.13,74490.3,0.97,-0.03,0.01,0,*5F
1506395244.35,5997,14.13,74490.8,0.97,-0.03,0.01,0,*5E
1506395245.51,5998,14.13,74494.8,0.97,0.01,-0.03,0,*51
1506395246.67,5999,14.13,74494.5,0.97,0.01,-0.03,0,*50
1506395247.85,6000,14.13,74490.3,0.97,-0.11,-0.11,0,*75
1506395249.01,6001,14.13,74490.5,0.97,0.01,0.09,0,*7C
1506395250.17,6002,14.13,74486.3,0.97,0.09,0.09,0,*77
1506395251.33,6003,14.13,74488.5,0.93,0.05,0.05,0,*72
1506395252.5,6004,14.13,74486.5,0.93,-0.07,-0.03,0,*71
1506395253.66,6005,14.13,74492.8,0.93,-0.07,-0.07,0,*74
1506395254.84,6006,14.13,74490.5,0.93,-0.15,-0.15,0,*77
1506395256.01,6007,14.13,74488.0,0.93,-0.07,0.05,0,*59
1506395257.17,6008,14.13,74490.3,0.93,0.05,-0.03,0,*52
1506395258.34,6009,14.13,74488.3,0.93,-0.07,-0.07,0,*78
1506395259.5,6010,14.13,74486.5,0.93,-0.07,-0.07,0,*70
1506395260.67,6011,14.13,74488.0,0.93,0.05,0.05,0,*71
1506395261.85,6012,14.13,74492.3,0.97,0.09,0.13,0,*4D
1506395263.03,6013,14.13,74490.3,0.97,0.09,0.13,0,*4C
1506395264.24,6014,14.13,74492.5,0.99,0.09,0.13,0,*45
1506395265.43,6015,14.06,74488.5,0.97,0.09,0.21,0,*4B
1506395266.61,6016,14.13,74490.3,0.97,0.01,0.13,0,*41
1506395267.76,6017,14.13,74492.8,0.97,0.01,0.09,0,*7B
1506395268.92,6018,14.06,74492.3,0.97,0.01,0.09,0,*74
1506395270.11,6019,14.06,74488.0,0.97,0.09,0.21,0,*47
1506395271.32,6020,14.13,74494.3,0.97,0.21,0.13,0,*76
1506395272.52,6021,14.13,74494.8,0.97,0.13,0.13,0,*76
1506395273.73,6022,14.13,74490.0,0.97,0.21,0.13,0,*74
1506395274.94,6023,14.06,74488.0,0.97,0.13,0.21,0,*75
1506395276.15,6024,14.13,74486.3,0.97,0.13,0.13,0,*73
1506395277.36,6025,14.13,74490.3,0.97,0.21,0.21,0,*72
1506395278.57,6026,14.13,74488.0,0.97,0.13,0.13,0,*71
1506395279.75,6027,14.13,74484.5,0.97,0.09,0.13,0,*4B
1506395280.96,6028,14.13,74486.8,0.97,0.13,0.13,0,*7F
1506395282.16,6029,14.13,74486.3,0.97,0.21,0.13,0,*7F
1506395283.35,6030,14.13,74490.5,0.97,0.13,0.09,0,*4D
1506395284.51,6031,14.13,74490.3,0.97,0.09,0.09,0,*77
1506395285.66,6032,14.13,74488.0,0.97,0.01,0.09,0,*7C
1506395286.88,6033,14.13,74488.5,0.97,0.21,0.21,0,*75
1506395288.09,6034,14.13,74492.3,0.97,0.21,0.21,0,*72
1506395289.3,6035,14.13,74496.5,0.97,0.21,0.13,0,*72
1506395290.51,6036,14.13,74492.3,0.97,0.13,0.13,0,*70
1506395291.71,6037,14.13,74488.8,0.97,0.21,0.13,0,*70
1506395292.92,6038,14.13,74492.8,0.97,0.13,0.13,0,*7E
1506395294.13,6039,14.06,74488.3,0.97,0.13,0.21,0,*7E
1506395295.32,6040,14.13,74494.5,0.97,0.09,0.13,0,*4A
1506395296.56,6041,14.13,74494.8,0.99,0.21,0.21,0,*7E
1506395297.79,6042,14.13,74494.0,0.99,0.13,0.13,0,*7D
1506395299.0,6043,14.13,74492.0,0.97,0.13,0.21,0,*73
1506395300.16,6044,14.13,74490.8,0.97,0.09,0.09,0,*75
1506395301.37,6045,14.13,74494.8,0.97,0.13,0.21,0,*75
1506395302.58,6046,14.13,74492.5,0.97,0.13,0.21,0,*76
1506395303.76,6047,14.13,74494.3,0.97,0.01,0.13,0,*45
1506395304.95,6048,14.13,74490.8,0.97,0.09,0.21,0,*43
1506395306.16,6049,14.13,74492.0,0.97,0.13,0.21,0,*79
1506395307.4,6050,14.13,74494.8,0.99,0.13,0.21,0,*7F
1506395308.61,6051,14.13,74488.8,0.97,0.13,0.21,0,*70
1506395309.77,6052,14.13,74490.0,0.97,0.09,0.01,0,*7A
1506395310.92,6053,14.13,74490.8,0.97,0.01,0.09,0,*7B
1506395312.09,6054,14.13,74492.3,0.97,-0.03,0.09,0,*53
1506395313.24,6055,14.13,74492.8,0.97,0.01,0.01,0,*75
1506395314.4,6056,14.13,74492.0,0.97,-0.03,0.01,0,*59
1506395315.56,6057,14.13,74494.0,0.97,0.01,0.01,0,*77
1506395316.72,6058,14.13,74494.8,0.93,0.05,0.05,0,*7C
1506395317.95,6059,14.13,74496.0,0.99,0.13,0.13,0,*77
1506395319.16,6060,14.13,74498.5,0.97,0.13,0.21,0,*72
1506395320.34,6061,14.13,74496.0,0.99,0.01,0.09,0,*74